Martinsburg, WV

1:00 AM EST on December 12, 2019 (GMT -0500)
Eastern W Va Regional-Shepherd

Weather History for KMRB - November, 2019

Change the Weather History Date:

Tuesday, November 12, 2019

  Actual Average Record
Temperature  
Mean Temperature 42 °F 46 °F  
Max Temperature 59 °F 56 °F 79 °F (1927)
Min Temperature 24 °F 35 °F 15 °F (1926)
Degree Days  
Heating Degree Days 24 19  
Month to date heating degree days 271 212  
Since 1 July heating degree days 544 658  
Cooling Degree Days 0 0  
Month to date cooling degree days 0 0  
Year to date cooling degree days 1282 895  
Moisture  
Dew Point 25 °F    
Average Humidity 58    
Maximum Humidity 77    
Minimum Humidity 41    
Precipitation  
Precipitation 0.04 in 0.09 in 1.50 in (1974)
Month to date precipitation 0.17 1.19  
Year to date precipitation 39.93 34.05  
Sea Level Pressure  
Sea Level Pressure 30.01 in    
Wind  
Wind Speed 11 mph ()    
Max Wind Speed 26 mph    
Max Gust Speed 37 mph    
Visibility 9.9 miles    
Events Rain , Snow    
T = Trace of Precipitation, MM = Missing Value Source: Averaged Metar Reports

Daily Weather History Graph

Daily Weather History Graph

Search for Another Location

Airport or City:

Astronomy

Nov. 12, 2019 Rise Set
Actual Time 6:52 AM EST 4:59 PM EST
Civil Twilight 6:23 AM EST 5:28 PM EST
Nautical Twilight 5:51 AM EST 6:00 PM EST
Astronomical Twilight 5:19 AM EST 6:31 PM EST
Moon 5:25 PM EST 6:41 AM EST
Length of Visible Light 11h 04m
Length of Day
10h 07m
Full, 100% of the Moon is Illuminated
Nov 12
Full
Nov 19
Last Quarter
Nov 26
New
Dec 4
First Quarter
Dec 12
Full

Hourly Weather History & Observations

Time (EST) Temp. Windchill Dew Point Humidity Pressure Visibility Wind Dir Wind Speed Gust Speed Precip Events Conditions
12:53 AM 57.9 °F - 39.9 °F 51% 29.73 in 10.0 mi SSW 4.6 mph - 0.00 in Rain Light Rain
1:53 AM 55.9 °F - 43.0 °F 62% 29.74 in 10.0 mi SSW 8.1 mph - 0.00 in Rain Light Rain
2:53 AM 53.1 °F - 45.0 °F 74% 29.76 in 10.0 mi WNW 10.4 mph - 0.01 in Rain Light Rain
3:53 AM 51.1 °F - 44.1 °F 77% 29.77 in 10.0 mi West 12.7 mph 25.3 mph 0.01 in Rain Light Rain
4:53 AM 48.0 °F - 41.0 °F 77% 29.81 in 10.0 mi West 17.3 mph 21.9 mph 0.01 in Rain Light Rain
5:53 AM 43.0 °F 34.5 °F 30.9 °F 62% 29.86 in 10.0 mi NW 19.6 mph 33.4 mph 0.01 in   Overcast
6:53 AM 41.0 °F 31.4 °F 28.0 °F 60% 29.91 in 10.0 mi WNW 21.9 mph 33.4 mph N/A   Overcast
7:53 AM 39.9 °F 32.5 °F 27.0 °F 60% 29.97 in 10.0 mi WNW 12.7 mph 23.0 mph N/A   Overcast
8:53 AM 39.0 °F 30.3 °F 25.0 °F 57% 29.99 in 10.0 mi NW 16.1 mph 23.0 mph N/A   Mostly Cloudy
9:53 AM 37.9 °F 30.0 °F 23.0 °F 55% 30.01 in 10.0 mi WNW 12.7 mph - N/A   Scattered Clouds
10:53 AM 37.0 °F 29.8 °F 21.9 °F 54% 30.03 in 10.0 mi NNW 10.4 mph 19.6 mph N/A   Scattered Clouds
11:53 AM 37.0 °F 29.8 °F 21.9 °F 54% 30.04 in 10.0 mi North 10.4 mph - N/A   Overcast
12:53 PM 37.9 °F 30.9 °F 21.9 °F 53% 30.02 in 10.0 mi NNW 10.4 mph - N/A   Overcast
1:53 PM 39.0 °F 29.3 °F 19.9 °F 46% 30.02 in 10.0 mi NW 19.6 mph 29.9 mph N/A   Overcast
2:29 PM 39.0 °F 29.6 °F 17.1 °F 41% 30.01 in 10.0 mi WNW 18.4 mph - N/A   Mostly Cloudy
2:53 PM 37.9 °F 27.6 °F 19.0 °F 47% 30.03 in 10.0 mi WNW 20.7 mph 29.9 mph N/A   Overcast
4:53 PM 33.1 °F 23.4 °F 17.1 °F 52% 30.11 in 10.0 mi NNW 13.8 mph 26.5 mph 0.00 in   Scattered Clouds
5:53 PM 30.9 °F 21.2 °F 16.0 °F 54% 30.15 in 10.0 mi WNW 12.7 mph - N/A   Partly Cloudy
6:53 PM 30.0 °F 19.5 °F 16.0 °F 56% 30.19 in 10.0 mi NNW 13.8 mph 19.6 mph 0.00 in   Clear
7:53 PM 28.9 °F 19.2 °F 19.0 °F 67% 30.22 in 7.0 mi NW 11.5 mph - 0.00 in Snow Light Snow
8:53 PM 28.0 °F 19.3 °F 17.1 °F 63% 30.26 in 10.0 mi NW 9.2 mph - 0.00 in   Scattered Clouds
9:53 PM 27.0 °F 17.3 °F 12.0 °F 53% 30.27 in 10.0 mi NNW 10.4 mph - 0.00 in   Partly Cloudy
11:53 PM 24.1 °F 19.7 °F 12.0 °F 60% 30.31 in 10.0 mi NW 3.5 mph - N/A   Clear